Погода во Фредрикстаде

Норвегия     59°13′02″N   10°56′21″E
темп.,
°C
ветер,
м/с
пор.,
м/с
влажн.,
%
обл.,
%
осадки,
мм/ч
давл.,
гПа
погр.,
м
26 июля, пн
пн2623:00+19в2354100 0.0 101654
02:00+18в3960100 0.0 1016176
05:00+15в377444 0.0 1016154
08:00+19в4764100 0.0 1016399
11:00+23в344997 0.0 1016974
14:00+25юв5644100 0.0 10151485
17:00+23св365895 0.3 1013347
20:00+18юз4893100 1.3 1013329
27 июля, вт
вт2723:00+18вюв2993100 0.4 1013325
02:00+17всв4993100 1.4 1013247
05:00+17всв2794100 0.4 1012247
08:00+17всв1393100 1.0 1012200
11:00+17св4794100 2.4 1011345
14:00+17св41194100 6.2 1010543
17:00+19в4991100 3.3 1008579
20:00+18в3794100 5.6 1007485
28 июля, ср
ср2823:00+18всв129797 1.8 100794
02:00+17вюв119557 3.6 100638
05:00+16юв249647 1.4 100599
08:00+18ююз579383 4.9 1005595
11:00+19ю5784100 0.9 1006719
14:00+20ююз5775100 1.5 1006864
17:00+20ююз4673100 0.0 1005723
20:00+17ю2486100 0.7 1004185
29 июля, чт
чт2923:00+16ююз369095 0.8 1003229
02:00+16ююз4893100 2.1 1002398
05:00+15юв239482 1.9 1000130
08:00+16ююз578987 5.0 999740
11:00+17ю578183 2.5 998922
14:00+17ююз5781100 5.0 997853
17:00+15юз5884100 2.8 996598
20:00+15юз598174 3.8 994657
30 июля, пт
пт3023:00+13юз2589100 0.6 993234
02:00+12зсз129283 0.6 99381
05:00+13зсз1292100 0.1 99286
08:00+15зюз3586100 0.1 992347
11:00+17зюз2371100 0.0 993433
14:00+16сз247697 0.1 994273
17:00+21зюз345721 0.0 995999
20:00+19ююз367499 0.1 995381